C/2018 C2 ( Lemmon )

Japanese version
Home page
Updated on July 17, 2018

---------------------------------------------------------------------

* Profile

Discovery Date February 5, 2018
Magnitude 19.9 mag
Discoverer Mount Lemmon Survey

* Pictures

* Orbital Elements

Epoch 2018 June 11.0 TT = JDT 2458280.5
T 2018 June 2.21930 TT                                  MPCW
q   1.9565256            (2000.0)            P               Q
z  -0.0009239      Peri.  134.13614     -0.57782858     +0.58836995
 +/-0.0000015      Node    91.13944     -0.81108088     -0.49114962
e   1.0018076      Incl.   34.45368     +0.09089524     -0.64233391
From 706 observations 2018 Jan. 28-May 24, mean residual 0".3.

* Finding Charts

* Magnitudes Graph

        m1 = 8.5 + 5 log d + 22.0 log r(t - 30)

---------------------------------------------------------------------

The orbital elements are published on M.P.E.C. 2018-K95.
The charts are made with StellaNavigator Ver.10 (AstroArts).
The magnitudes graphs are made with Comet for Windows.

---------------------------------------------------------------------

Copyright(C) Seiichi Yoshida (comet@aerith.net). All rights reserved.